Location: PSU-Greenbush Astrophysical Observatory
(37.5140°N, 94.9880°W)
Time: 19:13:01
(UTC-06:00)

deb Explorer IX - Pass Details

Date: 28 January 2020
Orbit: 549 x 1099 km, 38.8° (Epoch: 27 February)

Event Time Altitude Azimuth Distance (km) Brightness Sun altitude
Rises 00:42:31 0° 282° (WNW) 3,859 - -70.7°
Reaches altitude 10° 00:45:13 10° 282° (WNW) 2,931 - -70.6°
Maximum altitude 00:52:32 82° 197° (SSW) 1,105 - -70.3°
Drops below altitude 10° 00:59:39 10° 110° (ESE) 2,858 - -69.9°
Sets 01:02:16 0° 109° (ESE) 3,758 - -69.7°
